Tracking 29892 objects as of 21-Nov-2024
HD Live streaming from Space Station
objects crossing your sky now

FENGYUN 1C DEB

Track FENGYUN 1C DEB now!
10-day predictions


NORAD ID: 30925
Int'l Code: 1999-025AZP
Perigee: 758.8 km
Apogee: 809.9 km
Inclination: 98.9 °
Period: 100.4 minutes
Semi major axis: 7155 km
RCS: 0.0096 m2 (small)
Launch date: May 10, 1999
Source: People's Republic of China (PRC)
Launch site: Taiyaun Space Center, China (TSC)

Note: This is SATELLITE DEBRIS
Your satellite tracking list
Your tracking list is empty




NASA's NSSDC Master Catalog

Two Line Element Set (TLE):
1 30925U 99025AZP 24325.26770892  .00010269  00000-0  36374-2 0  9994
2 30925  98.8727  77.5702 0035701 302.4929  87.3808 14.34358785914999
Source of the keplerian elements: AFSPC